When you browse on this site, cookies collect data to enhance your experience and personalize the content and advertising you see.
Visit our Privacy Policy to learn more. By continuing to use the site, you agree to this use of cookies and data.
  • In Österreich
  • Länderverzeichnis
  • Für 7 Tage
  • Wassertemperatur
  • Satellitenkarten
  • Wetterkarte
  • News
  • Widgets
  • user-avatar
    Anmelden

    Stündliche Wetter Ali Bajramli

    Heute, 19 Juli, Freitag

    Zeit Temperatur Niederschläge Wind Luftdruck Luftfeuchtigkeit
    00:00 +27°C° 0 mm 2 m/S 752 mmHg 59%
    01:00 +27°C° 0 mm 2 m/S 752 mmHg 60%
    02:00 +27°C° 0 mm 2 m/S 752 mmHg 60%
    03:00 +27°C° 0 mm 2 m/S 752 mmHg 58%
    04:00 +27°C° 0 mm 2 m/S 753 mmHg 57%
    05:00 +28°C° 0 mm 3 m/S 754 mmHg 55%
    06:00 +28°C° 0 mm 3 m/S 754 mmHg 54%
    07:00 +30°C° 0 mm 3 m/S 754 mmHg 47%
    08:00 +33°C° 0 mm 3 m/S 755 mmHg 41%
    09:00 +35°C° 0 mm 3 m/S 755 mmHg 35%
    10:00 +36°C° 0 mm 3 m/S 755 mmHg 33%
    11:00 +37°C° 0 mm 3 m/S 755 mmHg 30%
    12:00 +40°C° 0 mm 4 m/S 755 mmHg 28%
    13:00 +40°C° 0 mm 5 m/S 754 mmHg 27%
    14:00 +40°C° 0 mm 7 m/S 754 mmHg 27%
    15:00 +40°C° 0 mm 8 m/S 754 mmHg 26%
    16:00 +39°C° 0 mm 8 m/S 754 mmHg 28%
    17:00 +38°C° 0 mm 9 m/S 754 mmHg 30%
    18:00 +37°C° 0 mm 9 m/S 755 mmHg 31%
    19:00 +34°C° 0 mm 8 m/S 755 mmHg 36%
    20:00 +33°C° 0 mm 7 m/S 755 mmHg 40%
    21:00 +30°C° 0 mm 6 m/S 756 mmHg 45%
    22:00 +30°C° 0 mm 5 m/S 756 mmHg 48%
    23:00 +29°C° 0 mm 4 m/S 756 mmHg 50%

    Morgen, 20 Juli, Samstag

    Zeit Temperatur Niederschläge Wind Luftdruck Luftfeuchtigkeit
    00:00 +28°C° 0 mm 2 m/S 756 mmHg 53%
    01:00 +28°C° 0 mm 2 m/S 756 mmHg 53%
    02:00 +28°C° 0 mm 2 m/S 756 mmHg 53%
    03:00 +27°C° 0 mm 2 m/S 756 mmHg 53%
    04:00 +28°C° 0 mm 2 m/S 756 mmHg 51%
    05:00 +29°C° 0 mm 2 m/S 757 mmHg 48%
    06:00 +29°C° 0 mm 2 m/S 757 mmHg 46%
    07:00 +31°C° 0 mm 2 m/S 757 mmHg 40%
    08:00 +34°C° 0 mm 2 m/S 758 mmHg 35%
    09:00 +36°C° 0 mm 2 m/S 758 mmHg 29%
    10:00 +38°C° 0 mm 2 m/S 758 mmHg 27%
    11:00 +39°C° 0 mm 3 m/S 758 mmHg 24%
    12:00 +40°C° 0 mm 3 m/S 758 mmHg 21%
    13:00 +41°C° 0 mm 4 m/S 758 mmHg 22%
    14:00 +42°C° 0 mm 6 m/S 757 mmHg 22%
    15:00 +43°C° 0 mm 8 m/S 757 mmHg 23%
    16:00 +40°C° 0 mm 9 m/S 757 mmHg 25%
    17:00 +39°C° 0 mm 10 m/S 758 mmHg 27%
    18:00 +38°C° 0 mm 11 m/S 758 mmHg 29%
    19:00 +37°C° 0 mm 10 m/S 758 mmHg 30%
    20:00 +35°C° 0 mm 9 m/S 759 mmHg 32%
    21:00 +34°C° 0 mm 8 m/S 759 mmHg 34%
    22:00 +33°C° 0 mm 7 m/S 759 mmHg 37%
    23:00 +32°C° 0 mm 6 m/S 759 mmHg 40%

    übermorgen, 21 Juli, Sonntag

    Zeit Temperatur Niederschläge Wind Luftdruck Luftfeuchtigkeit
    00:00 +30°C° 0 mm 5 m/S 759 mmHg 43%
    01:00 +30°C° 0 mm 4 m/S 759 mmHg 45%
    02:00 +29°C° 0 mm 3 m/S 759 mmHg 48%
    03:00 +28°C° 0 mm 2 m/S 759 mmHg 51%
    04:00 +29°C° 0 mm 2 m/S 759 mmHg 49%
    05:00 +29°C° 0 mm 2 m/S 759 mmHg 47%
    06:00 +30°C° 0 mm 2 m/S 759 mmHg 46%
    07:00 +33°C° 0 mm 3 m/S 759 mmHg 39%
    08:00 +35°C° 0 mm 4 m/S 759 mmHg 33%
    09:00 +37°C° 0 mm 5 m/S 759 mmHg 27%
    10:00 +39°C° 0 mm 5 m/S 759 mmHg 25%
    11:00 +40°C° 0 mm 6 m/S 759 mmHg 23%
    12:00 +42°C° 0 mm 6 m/S 758 mmHg 21%
    13:00 +42°C° 0 mm 6 m/S 758 mmHg 21%
    14:00 +41°C° 0 mm 7 m/S 757 mmHg 22%
    15:00 +41°C° 0 mm 7 m/S 756 mmHg 22%
    16:00 +40°C° 0 mm 7 m/S 756 mmHg 25%
    17:00 +39°C° 0 mm 7 m/S 756 mmHg 28%
    18:00 +36°C° 0 mm 7 m/S 756 mmHg 30%
    19:00 +35°C° 0 mm 6 m/S 757 mmHg 35%
    20:00 +33°C° 0 mm 5 m/S 757 mmHg 40%
    21:00 +30°C° 0 mm 4 m/S 757 mmHg 45%
    22:00 +30°C° 0 mm 3 m/S 757 mmHg 46%
    23:00 +29°C° 0 mm 3 m/S 757 mmHg 46%

    22 Juli, Montag

    Zeit Temperatur Niederschläge Wind Luftdruck Luftfeuchtigkeit
    00:00 +29°C° 0 mm 3 m/S 757 mmHg 46%
    01:00 +28°C° 0 mm 2 m/S 756 mmHg 48%
    02:00 +28°C° 0 mm 2 m/S 756 mmHg 50%
    03:00 +27°C° 0 mm 2 m/S 756 mmHg 52%
    04:00 +28°C° 0 mm 2 m/S 756 mmHg 53%
    05:00 +28°C° 0 mm 1 m/S 756 mmHg 53%
    06:00 +28°C° 0 mm 1 m/S 756 mmHg 54%
    07:00 +30°C° 0 mm 1 m/S 756 mmHg 47%
    08:00 +32°C° 0 mm 1 m/S 755 mmHg 41%
    09:00 +34°C° 0 mm 1 m/S 755 mmHg 34%
    10:00 +36°C° 0 mm 2 m/S 755 mmHg 31%
    11:00 +38°C° 0 mm 3 m/S 755 mmHg 28%
    12:00 +40°C° 0 mm 5 m/S 754 mmHg 25%
    13:00 +40°C° 0 mm 5 m/S 754 mmHg 26%
    14:00 +40°C° 0 mm 6 m/S 754 mmHg 27%
    15:00 +40°C° 0 mm 7 m/S 753 mmHg 28%
    16:00 +38°C° 0 mm 7 m/S 753 mmHg 34%
    17:00 +36°C° 0 mm 7 m/S 753 mmHg 40%
    18:00 +34°C° 0 mm 7 m/S 753 mmHg 45%
    19:00 +33°C° 0 mm 7 m/S 753 mmHg 50%
    20:00 +30°C° 0 mm 6 m/S 754 mmHg 55%
    21:00 +29°C° 0 mm 6 m/S 754 mmHg 59%
    22:00 +29°C° 0 mm 6 m/S 754 mmHg 55%
    23:00 +30°C° 0 mm 5 m/S 754 mmHg 51%

    23 Juli, Dienstag

    Zeit Temperatur Niederschläge Wind Luftdruck Luftfeuchtigkeit
    00:00 +30°C° 0 mm 5 m/S 754 mmHg 47%
    01:00 +29°C° 0 mm 4 m/S 754 mmHg 49%
    02:00 +29°C° 0 mm 4 m/S 754 mmHg 51%
    03:00 +29°C° 0 mm 3 m/S 754 mmHg 54%
    04:00 +29°C° 0 mm 3 m/S 754 mmHg 56%
    05:00 +29°C° 0 mm 3 m/S 754 mmHg 58%
    06:00 +29°C° 0 mm 3 m/S 754 mmHg 60%
    07:00 +30°C° 0 mm 3 m/S 754 mmHg 54%
    08:00 +33°C° 0 mm 3 m/S 754 mmHg 48%
    09:00 +35°C° 0 mm 2 m/S 754 mmHg 42%
    10:00 +36°C° 0 mm 3 m/S 754 mmHg 37%
    11:00 +38°C° 0 mm 4 m/S 754 mmHg 32%
    12:00 +41°C° 0 mm 4 m/S 753 mmHg 27%
    13:00 +41°C° 0 mm 6 m/S 753 mmHg 27%
    14:00 +40°C° 0 mm 7 m/S 752 mmHg 27%
    15:00 +40°C° 0 mm 9 m/S 752 mmHg 28%
    16:00 +39°C° 0 mm 9 m/S 752 mmHg 30%
    17:00 +38°C° 0 mm 9 m/S 752 mmHg 32%
    18:00 +35°C° 0 mm 9 m/S 751 mmHg 34%
    19:00 +34°C° 0 mm 7 m/S 752 mmHg 37%
    20:00 +33°C° 0 mm 6 m/S 752 mmHg 39%
    21:00 +32°C° 0 mm 5 m/S 752 mmHg 41%
    22:00 +30°C° 0 mm 5 m/S 752 mmHg 44%
    23:00 +30°C° 0 mm 4 m/S 752 mmHg 47%

    24 Juli, Mittwoch

    Zeit Temperatur Niederschläge Wind Luftdruck Luftfeuchtigkeit
    00:00 +29°C° 0 mm 3 m/S 751 mmHg 49%
    01:00 +28°C° 0 mm 3 m/S 751 mmHg 53%
    02:00 +28°C° 0 mm 3 m/S 751 mmHg 57%
    03:00 +27°C° 0 mm 3 m/S 751 mmHg 61%
    04:00 +27°C° 0 mm 3 m/S 751 mmHg 62%
    05:00 +27°C° 0 mm 3 m/S 752 mmHg 62%
    06:00 +28°C° 0 mm 3 m/S 752 mmHg 63%
    07:00 +29°C° 0 mm 3 m/S 752 mmHg 55%
    08:00 +31°C° 0 mm 2 m/S 752 mmHg 48%
    09:00 +34°C° 0 mm 2 m/S 752 mmHg 40%
    10:00 +36°C° 0 mm 2 m/S 751 mmHg 36%
    11:00 +37°C° 0 mm 2 m/S 751 mmHg 31%
    12:00 +39°C° 0 mm 2 m/S 751 mmHg 26%
    13:00 +39°C° 0 mm 3 m/S 750 mmHg 26%
    14:00 +40°C° 0 mm 5 m/S 750 mmHg 27%
    15:00 +40°C° 0 mm 7 m/S 750 mmHg 27%
    16:00 +39°C° 0 mm 7 m/S 750 mmHg 30%
    17:00 +36°C° 0 mm 7 m/S 750 mmHg 33%
    18:00 +35°C° 0 mm 8 m/S 750 mmHg 37%
    19:00 +33°C° 0 mm 7 m/S 750 mmHg 43%
    20:00 +30°C° 0 mm 6 m/S 751 mmHg 50%
    21:00 +29°C° 0 mm 6 m/S 751 mmHg 56%
    22:00 +28°C° 0 mm 5 m/S 751 mmHg 58%
    23:00 +28°C° 0 mm 3 m/S 751 mmHg 60%
    Mehr zeigen